Tracking 19562 objects as of 24-Mar-2019
HD Live streaming from Space Station
objects crossing your sky now

AURA

Track AURA now!
10-day predictions
AURA is classified as:


NORAD ID: 28376
Int'l Code: 2004-026A
Perigee: 709.1 km
Apogee: 710.3 km
Inclination: 98.2 °
Period: 98.8 minutes
Semi major axis: 7080 km
RCS: 9.8844 m2 (large)
Launch date: July 15, 2004
Source: United States (US)
Launch site: AIR FORCE WESTERN TEST RANGE (AFWTR)

Study Earth's ozone, air quality, and climate; extension of UARS and TOMS missions.
aabbcc
Your satellite tracking list
Your tracking list is empty




NASA's NSSDC Master Catalog

Two Line Element Set (TLE):
1 28376U 04026A   19083.17434788  .00000064  00000-0  24177-4 0  9996
2 28376  98.2119  27.4996 0000909  84.9440 275.1862 14.57099473781255
Source of the keplerian elements: AFSPC